{"data":{"norad_id":54647,"intl_designator":"2022-166F","name":"ONEWEB-0545","alt_names":[],"object_type":"PAYLOAD","status":"ACTIVE","operator":null,"country":"UK","launch_date":"2022-12-08","launch_site_code":"AFETR","launch_vehicle":null,"mission":null,"orbit_class":"UNKNOWN","rcs_meters":null,"size_class":null,"mass_kg":null,"dimensions":null,"purposes":["comms"],"wikipedia_slug":null,"has_3d_model":false,"image_url":null,"decayed_at":null,"tle_current":{"epoch":"2026-09-20T04:32:17.128032Z","epoch_age_seconds":48889,"freshness":"FRESH","line1":"1 54647U 22166F   26263.18908713 -.00000051  00000+0 -15431-3 0  9993","line2":"2 54647  87.9282 225.0708 0002561  90.9586 269.1841 13.21826245184052","mean_motion":13.21826245,"eccentricity":0.0002561,"inclination_deg":87.9282,"raan_deg":225.0708,"arg_perigee_deg":90.9586,"mean_anomaly_deg":269.1841,"bstar":-0.00015431,"rev_number":18405,"period_min":108.94018827717,"perigee_km":1175.8173714293,"apogee_km":1179.6874979978,"semimajor_km":7555.8894347135,"source":"CELESTRAK","updated_at":"2026-09-20T09:00:44.723962Z"}}}